Погода в Ахмеднагаре

Индия     19°05′31″N   74°44′17″E
темп.,
°C
ветер,
м/с
пор.,
м/с
влажн.,
%
обл.,
%
осадки,
мм/ч
давл.,
гПа
погр.,
м
26 февраля, пт
пт2623:30+25ссз612385 0.0 1012317
02:30+23ссз47420 0.0 1011144
05:30+22с34440 0.0 101048
08:30+26ссз46300 0.0 1013350
11:30+31ссз54190 0.0 10122273
14:30+33ссз33150 0.0 10083516
17:30+33ссз341412 0.0 10083752
20:30+29ссз491997 0.0 1010301
27 февраля, сб
сб2723:30+25с6102748 0.0 1011198
02:30+23ссз46280 0.0 100985
05:30+21с23270 0.0 100924
08:30+26с68180 0.0 1012312
11:30+32с66130 0.0 10111179
14:30+33сз43110 0.0 10083426
17:30+33ссз54110 0.0 10063700
20:30+28с45160 0.0 101047
28 февраля, вс
вс2823:30+25с58240 0.0 1010120
02:30+23ссз56320 0.0 100993
05:30+22с59310 0.0 1008117
08:30+26с711250 0.0 1012434
11:30+33ссв66150 0.0 10111764
14:30+34ссз32120 0.0 10083840
17:30+34с42110 0.0 10073967
20:30+28с46180 0.0 101091
1 марта, пн
пн123:30+26с34200 0.0 101033
02:30+24ссз610230 0.0 1010160
05:30+23с59260 0.0 1010133
08:30+26с711220 0.0 1013463
11:30+33св78150 0.0 10131337
14:30+34всв33120 0.0 10093499
17:30+34св33120 0.0 10093747
20:30+28ссв34180 0.0 101127
2 марта, вт
вт223:30+26св34200 0.0 101236
02:30+24ссз46240 0.0 101187
05:30+23с57250 0.0 101194
08:30+26с710180 0.0 1014353
11:30+32св45120 0.0 10141432
14:30+34всв32100 0.0 10103151
17:30+35ссв4390 0.0 10093372
20:30+27ссв34150 0.0 101128